Date,TemperatureHighF,TemperatureAvgF,TemperatureLowF,DewpointHighF,DewpointAvgF,DewpointLowF,HumidityHigh,HumidityAvg,HumidityLow,PressureMaxIn,PressureMinIn,WindSpeedMaxMPH,WindSpeedAvgMPH,GustSpeedMaxMPH,PrecipitationSumIn
2013-9-1,86,86,86,63,63,63,46,46,46,29.99,29.99,4,4,5,0.00
2013-9-2,86,86,86,63,63,63,46,46,46,29.99,29.99,4,4,5,0.00
2013-9-3,86,86,86,63,63,63,46,46,46,29.99,29.99,4,4,5,0.00
2013-9-4,86,86,86,63,63,63,46,46,46,29.99,29.99,4,4,5,0.00
2013-9-5,86,86,86,63,63,63,46,46,46,29.99,29.99,4,4,5,0.00
2013-9-6,86,86,86,63,63,63,46,46,46,29.99,29.99,4,4,5,0.00
2013-9-7,86,86,86,63,63,63,46,46,46,29.99,29.99,4,4,5,0.00
2013-9-8,86,85,78,76,65,63,95,52,46,29.99,29.92,4,4,5,0.34
2013-9-9,95,83,75,78,71,63,99,71,38,30.00,29.92,8,3,8,0.00
2013-9-10,92,82,77,76,72,64,97,76,42,30.08,29.98,11,2,11,0.00
2013-9-11,92,82,73,75,69,53,99,68,29,30.09,29.99,10,2,10,0.00
2013-9-12,94,82,74,75,70,60,99,69,38,30.00,29.87,8,2,8,0.00
2013-9-13,92,83,75,79,73,61,99,74,39,29.89,29.76,8,3,8,0.00
2013-9-14,86,79,74,73,67,60,82,68,41,29.95,29.80,9,1,9,0.01
2013-9-15,91,80,70,79,68,57,99,66,38,30.02,29.93,9,3,9,0.00
2013-9-16,92,82,74,79,74,61,99,82,38,30.05,29.95,11,3,11,0.02
2013-9-17,91,80,74,82,75,67,99,88,46,30.03,29.92,12,2,12,0.04
2013-9-18,87,78,74,78,74,70,99,89,60,30.04,29.96,11,2,11,0.00
2013-9-19,89,80,73,75,70,58,99,75,37,30.03,29.94,14,3,14,0.00
2013-9-26,86,79,71,76,72,65,99,81,50,29.91,29.76,5,3,5,0.00
2013-9-27,84,76,68,72,67,59,99,78,45,29.99,29.90,7,2,7,0.00
2013-9-28,85,74,65,66,62,55,96,69,37,30.04,29.96,5,2,5,0.00
2013-9-29,82,74,64,70,63,59,90,71,45,30.01,29.91,6,1,6,0.00
2013-9-30,83,75,69,75,71,67,99,89,60,29.95,29.89,7,2,7,0.00